| time (UTC) | temp F | wind direction | speed MPH | gust MPH | rain 1hr in | rain 24hr in | rain mn in | humidity % | barometer mb |
| 20260510081820 | 57 | 253 | 0.0 | 0.0 | 0.00 | 0.15 | 0.00 | 89 | 1011.4 |
| 20260510081313 | 57 | 253 | 0.0 | 0.0 | 0.00 | 0.15 | 0.00 | 89 | 1011.4 |
| 20260510080826 | 57 | 253 | 0.0 | 0.0 | 0.00 | 0.15 | 0.00 | 89 | 1011.3 |
| 20260510080318 | 57 | 253 | 0.0 | 0.0 | 0.00 | 0.15 | 0.00 | 88 | 1011.1 |
| 20260510075816 | 57 | 253 | 0.0 | 0.0 | 0.00 | 0.15 | 0.00 | 87 | 1010.9 |
| 20260510075328 | 57 | 253 | 0.0 | 0.0 | 0.00 | 0.15 | 0.00 | 86 | 1010.8 |
| 20260510074841 | 58 | 253 | 0.0 | 0.0 | 0.00 | 0.17 | 0.00 | 86 | 1010.8 |
| 20260510074334 | 58 | 253 | 0.0 | 0.0 | 0.00 | 0.17 | 0.00 | 85 | 1010.8 |
| 20260510073825 | 59 | 253 | 0.0 | 1.0 | 0.00 | 0.17 | 0.00 | 84 | 1010.7 |
| 20260510073318 | 59 | 253 | 0.0 | 1.0 | 0.00 | 0.17 | 0.00 | 83 | 1010.5 |
| 20260510072811 | 59 | 253 | 0.0 | 1.0 | 0.00 | 0.17 | 0.00 | 83 | 1010.6 |
| 20260510072324 | 60 | 253 | 0.0 | 2.0 | 0.00 | 0.17 | 0.00 | 82 | 1010.6 |
| 20260510071837 | 60 | 252 | 1.0 | 2.0 | 0.00 | 0.17 | 0.00 | 81 | 1010.6 |
| 20260510071328 | 61 | 245 | 1.0 | 2.0 | 0.00 | 0.17 | 0.00 | 81 | 1010.6 |
| 20260510070841 | 61 | 258 | 0.0 | 2.0 | 0.00 | 0.17 | 0.00 | 80 | 1010.6 |
| 20260510070317 | 61 | 271 | 0.0 | 3.0 | 0.00 | 0.17 | 0.00 | 79 | 1010.7 |
| 20260510065810 | 62 | 250 | 1.0 | 4.0 | 0.00 | 0.17 | 0.00 | 79 | 1010.6 |
| 20260510065322 | 62 | 281 | 1.0 | 5.0 | 0.00 | 0.17 | 0.00 | 79 | 1010.8 |
| 20260510064815 | 62 | 273 | 1.0 | 8.0 | 0.00 | 0.21 | 0.00 | 78 | 1010.7 |
| 20260510064328 | 62 | 335 | 2.0 | 8.0 | 0.00 | 0.21 | 0.00 | 78 | 1011.0 |
| 20260510063821 | 62 | 261 | 3.0 | 5.0 | 0.00 | 0.21 | 0.00 | 77 | 1010.6 |
| 20260510063314 | 63 | 272 | 3.0 | 7.0 | 0.00 | 0.21 | 0.00 | 76 | 1010.6 |
| 20260510062811 | 63 | 238 | 3.0 | 8.0 | 0.00 | 0.21 | 0.00 | 75 | 1010.5 |
| 20260510062324 | 63 | 245 | 3.0 | 8.0 | 0.00 | 0.21 | 0.00 | 75 | 1010.6 |
| 20260510061816 | 63 | 226 | 4.0 | 7.0 | 0.00 | 0.21 | 0.00 | 76 | 1010.7 |
| 20260510061350 | 63 | 261 | 4.0 | 7.0 | 0.00 | 0.21 | 0.00 | 75 | 1010.7 |
| 20260510060822 | 63 | 252 | 4.0 | 7.0 | 0.00 | 0.21 | 0.00 | 75 | 1010.7 |
| 20260510060314 | 63 | 252 | 4.0 | 6.0 | 0.00 | 0.21 | 0.00 | 76 | 1010.8 |
| 20260510055826 | 63 | 248 | 3.0 | 5.0 | 0.00 | 0.21 | 0.00 | 76 | 1010.7 |
| 20260510055339 | 63 | 243 | 3.0 | 6.0 | 0.00 | 0.21 | 0.00 | 76 | 1010.7 |
| 20260510054831 | 63 | 256 | 4.0 | 6.0 | 0.00 | 0.26 | 0.00 | 77 | 1010.8 |
| 20260510054322 | 63 | 261 | 4.0 | 6.0 | 0.00 | 0.26 | 0.00 | 77 | 1010.8 |
| 20260510053819 | 63 | 275 | 3.0 | 6.0 | 0.00 | 0.26 | 0.00 | 77 | 1010.8 |
| 20260510053312 | 63 | 255 | 3.0 | 6.0 | 0.00 | 0.26 | 0.00 | 76 | 1010.8 |
| 20260510052826 | 63 | 243 | 4.0 | 7.0 | 0.00 | 0.26 | 0.00 | 76 | 1010.7 |
| 20260510052318 | 63 | 242 | 4.0 | 7.0 | 0.00 | 0.26 | 0.00 | 77 | 1010.7 |
| 20260510051811 | 63 | 262 | 4.0 | 6.0 | 0.00 | 0.26 | 0.00 | 77 | 1010.7 |
| 20260510051323 | 62 | 245 | 3.0 | 5.0 | 0.00 | 0.26 | 0.00 | 78 | 1010.7 |
| 20260510050816 | 62 | 244 | 2.0 | 5.0 | 0.00 | 0.26 | 0.00 | 79 | 1010.7 |
| 20260510050329 | 62 | 263 | 3.0 | 5.0 | 0.00 | 0.26 | 0.00 | 78 | 1010.6 |
| 20260510045825 | 62 | 250 | 2.0 | 5.0 | 0.00 | 0.26 | 0.00 | 79 | 1010.7 |
| 20260510045318 | 62 | 243 | 3.0 | 5.0 | 0.00 | 0.26 | 0.00 | 78 | 1010.7 |
| 20260510044828 | 61 | 248 | 2.0 | 5.0 | 0.00 | 0.28 | 0.00 | 79 | 1010.7 |
| 20260510044341 | 60 | 238 | 2.0 | 4.0 | 0.00 | 0.28 | 0.00 | 80 | 1010.8 |
| 20260510043833 | 60 | 268 | 2.0 | 3.0 | 0.00 | 0.28 | 0.00 | 81 | 1010.7 |
| 20260510043345 | 60 | 269 | 1.0 | 2.0 | 0.00 | 0.28 | 0.00 | 81 | 1010.7 |
| 20260510042816 | 60 | 255 | 1.0 | 3.0 | 0.00 | 0.28 | 0.00 | 80 | 1010.6 |
| 20260510042330 | 60 | 248 | 2.0 | 3.0 | 0.00 | 0.28 | 0.00 | 79 | 1010.6 |
| 20260510041822 | 60 | 210 | 1.0 | 3.0 | 0.00 | 0.28 | 0.00 | 79 | 1010.6 |
| 20260510041315 | 60 | 259 | 2.0 | 3.0 | 0.00 | 0.28 | 0.00 | 80 | 1010.7 |
| 20260510040812 | 60 | 223 | 2.0 | 4.0 | 0.00 | 0.28 | 0.00 | 80 | 1010.8 |
| 20260510040325 | 60 | 264 | 1.0 | 4.0 | 0.00 | 0.28 | 0.00 | 81 | 1010.8 |
| 20260510035816 | 59 | 266 | 1.0 | 2.0 | 0.00 | 0.28 | 0.00 | 82 | 1010.7 |
| 20260510035349 | 58 | 230 | 0.0 | 3.0 | 0.00 | 0.28 | 0.00 | 82 | 1010.5 |
| 20260510034820 | 58 | 253 | 1.0 | 3.0 | 0.00 | 0.32 | 0.28 | 84 | 1010.6 |
| 20260510034313 | 57 | 221 | 0.0 | 0.0 | 0.00 | 0.32 | 0.28 | 85 | 1010.7 |
| 20260510033825 | 57 | 221 | 0.0 | 0.0 | 0.00 | 0.32 | 0.28 | 85 | 1010.6 |
| 20260510033317 | 57 | 221 | 0.0 | 0.0 | 0.00 | 0.32 | 0.28 | 85 | 1010.6 |
| 20260510032814 | 57 | 221 | 0.0 | 0.0 | 0.00 | 0.32 | 0.28 | 85 | 1010.6 |
| 20260510032327 | 57 | 221 | 0.0 | 0.0 | 0.00 | 0.32 | 0.28 | 85 | 1010.6 |
| 20260510031819 | 57 | 221 | 0.0 | 1.0 | 0.00 | 0.32 | 0.28 | 84 | 1010.6 |
| 20260510031332 | 57 | 221 | 0.0 | 1.0 | 0.00 | 0.32 | 0.28 | 85 | 1010.6 |
| 20260510030824 | 57 | 221 | 0.0 | 0.0 | 0.00 | 0.32 | 0.28 | 85 | 1010.6 |
| 20260510030337 | 57 | 221 | 0.0 | 0.0 | 0.00 | 0.32 | 0.28 | 85 | 1010.5 |
| 20260510025829 | 57 | 221 | 0.0 | 0.0 | 0.00 | 0.32 | 0.28 | 87 | 1010.4 |
| 20260510025322 | 57 | 221 | 0.0 | 0.0 | 0.00 | 0.32 | 0.28 | 85 | 1010.4 |
| 20260510024815 | 57 | 221 | 0.0 | 0.0 | 0.00 | 0.33 | 0.28 | 85 | 1010.3 |
| 20260510024311 | 57 | 221 | 0.0 | 0.0 | 0.00 | 0.33 | 0.28 | 84 | 1010.3 |
| 20260510023824 | 57 | 221 | 0.0 | 0.0 | 0.00 | 0.33 | 0.28 | 84 | 1010.3 |
| 20260510023317 | 58 | 221 | 0.0 | 0.0 | 0.00 | 0.33 | 0.28 | 83 | 1010.2 |
| 20260510022850 | 58 | 221 | 0.0 | 0.0 | 0.00 | 0.33 | 0.28 | 82 | 1010.1 |
| 20260510022322 | 58 | 221 | 0.0 | 0.0 | 0.00 | 0.33 | 0.28 | 82 | 1010.2 |
| 20260510021815 | 59 | 221 | 0.0 | 0.0 | 0.00 | 0.33 | 0.28 | 81 | 1010.1 |
| 20260510021348 | 59 | 221 | 0.0 | 1.0 | 0.00 | 0.33 | 0.28 | 80 | 1010.1 |
| 20260510020840 | 60 | 221 | 0.0 | 1.0 | 0.00 | 0.33 | 0.28 | 80 | 1010.1 |
| 20260510020311 | 60 | 221 | 0.0 | 0.0 | 0.00 | 0.33 | 0.28 | 80 | 1010.0 |
| 20260510015824 | 60 | 221 | 0.0 | 1.0 | 0.00 | 0.33 | 0.28 | 79 | 1010.0 |
| 20260510015321 | 60 | 221 | 0.0 | 1.0 | 0.00 | 0.33 | 0.28 | 79 | 1009.9 |
| 20260510014813 | 60 | 221 | 0.0 | 1.0 | 0.00 | 0.33 | 0.28 | 79 | 1009.8 |
| 20260510014326 | 60 | 221 | 0.0 | 1.0 | 0.00 | 0.33 | 0.28 | 79 | 1009.7 |
| 20260510013819 | 61 | 221 | 0.0 | 0.0 | 0.00 | 0.33 | 0.28 | 77 | 1009.6 |
| 20260510013312 | 61 | 221 | 0.0 | 1.0 | 0.00 | 0.33 | 0.28 | 75 | 1009.5 |
| 20260510012844 | 62 | 221 | 0.0 | 1.0 | 0.00 | 0.33 | 0.28 | 75 | 1009.4 |
| 20260510012336 | 63 | 221 | 0.0 | 1.0 | 0.00 | 0.33 | 0.28 | 73 | 1009.2 |
| 20260510011828 | 64 | 221 | 0.0 | 1.0 | 0.00 | 0.33 | 0.28 | 72 | 1009.2 |
| 20260510011321 | 65 | 221 | 0.0 | 1.0 | 0.00 | 0.33 | 0.28 | 71 | 1009.1 |
| 20260510010834 | 65 | 221 | 0.0 | 1.0 | 0.00 | 0.33 | 0.28 | 68 | 1009.1 |
| 20260510010330 | 66 | 221 | 0.0 | 1.0 | 0.00 | 0.33 | 0.28 | 67 | 1009.0 |
| 20260510005822 | 66 | 229 | 0.0 | 1.0 | 0.00 | 0.33 | 0.28 | 66 | 1009.0 |
| 20260510005315 | 66 | 229 | 0.0 | 2.0 | 0.00 | 0.33 | 0.28 | 65 | 1009.0 |
| 20260510004828 | 67 | 215 | 0.0 | 2.0 | 0.00 | 0.33 | 0.28 | 65 | 1008.9 |
| 20260510004322 | 67 | 238 | 0.0 | 4.0 | 0.00 | 0.33 | 0.28 | 64 | 1008.7 |
| 20260510003814 | 68 | 246 | 1.0 | 5.0 | 0.00 | 0.33 | 0.28 | 63 | 1008.6 |
| 20260510003347 | 69 | 239 | 2.0 | 8.0 | 0.00 | 0.33 | 0.28 | 61 | 1008.5 |
| 20260510002818 | 69 | 236 | 3.0 | 8.0 | 0.00 | 0.33 | 0.28 | 60 | 1008.4 |
| 20260510002315 | 69 | 238 | 2.0 | 8.0 | 0.00 | 0.33 | 0.28 | 60 | 1008.4 |
| 20260510001828 | 70 | 240 | 4.0 | 8.0 | 0.00 | 0.33 | 0.28 | 59 | 1008.3 |
| 20260510001321 | 70 | 243 | 5.0 | 9.0 | 0.00 | 0.33 | 0.28 | 58 | 1008.2 |
| 20260510000814 | 70 | 254 | 5.0 | 9.0 | 0.00 | 0.33 | 0.28 | 58 | 1008.2 |
| 20260510000327 | 71 | 231 | 5.0 | 9.0 | 0.00 | 0.33 | 0.28 | 58 | 1008.1 |
| 20260509235820 | 71 | 240 | 5.0 | 9.0 | 0.00 | 0.33 | 0.28 | 56 | 1008.1 |
| 20260509235312 | 71 | 248 | 3.0 | 7.0 | 0.00 | 0.33 | 0.28 | 58 | 1008.0 |
| 20260509234825 | 72 | 238 | 2.0 | 7.0 | 0.00 | 0.33 | 0.28 | 57 | 1008.0 |
| 20260509234339 | 72 | 257 | 2.0 | 10.0 | 0.00 | 0.33 | 0.28 | 56 | 1008.0 |
| 20260509233834 | 72 | 238 | 5.0 | 10.0 | 0.00 | 0.33 | 0.28 | 56 | 1008.0 |
| 20260509233325 | 72 | 271 | 6.0 | 12.0 | 0.00 | 0.33 | 0.28 | 56 | 1008.0 |
| 20260509232818 | 73 | 248 | 7.0 | 12.0 | 0.00 | 0.33 | 0.28 | 57 | 1007.9 |
| 20260509232331 | 73 | 259 | 4.0 | 10.0 | 0.00 | 0.33 | 0.28 | 57 | 1007.9 |
| 20260509231824 | 73 | 207 | 5.0 | 12.0 | 0.00 | 0.33 | 0.28 | 56 | 1007.8 |
| 20260509231316 | 73 | 231 | 5.0 | 10.0 | 0.00 | 0.33 | 0.28 | 57 | 1007.6 |
| 20260509230849 | 73 | 250 | 7.0 | 10.0 | 0.00 | 0.33 | 0.28 | 55 | 1007.7 |
| 20260509230341 | 73 | 243 | 5.0 | 9.0 | 0.00 | 0.33 | 0.28 | 56 | 1007.7 |
| 20260509225813 | 73 | 257 | 5.0 | 13.0 | 0.00 | 0.33 | 0.28 | 56 | 1007.6 |
| 20260509225326 | 73 | 249 | 9.0 | 13.0 | 0.00 | 0.33 | 0.28 | 54 | 1007.7 |
| 20260509224822 | 73 | 245 | 7.0 | 15.0 | 0.00 | 0.33 | 0.28 | 55 | 1007.7 |
| 20260509224315 | 74 | 237 | 7.0 | 15.0 | 0.00 | 0.33 | 0.28 | 54 | 1007.7 |
| 20260509223829 | 74 | 231 | 6.0 | 12.0 | 0.00 | 0.33 | 0.28 | 55 | 1007.7 |
| 20260509223322 | 73 | 224 | 6.0 | 13.0 | 0.00 | 0.33 | 0.28 | 55 | 1007.6 |
| 20260509222327 | 73 | 269 | 7.0 | 14.0 | 0.00 | 0.33 | 0.28 | 56 | 1007.6 |
| 20260509221820 | 73 | 254 | 9.0 | 13.0 | 0.00 | 0.33 | 0.28 | 54 | 1007.6 |
| 20260509221317 | 74 | 220 | 7.0 | 15.0 | 0.00 | 0.33 | 0.28 | 54 | 1007.6 |
| 20260509220830 | 74 | 248 | 7.0 | 15.0 | 0.00 | 0.33 | 0.28 | 56 | 1007.7 |
| 20260509220323 | 74 | 243 | 7.0 | 16.0 | 0.00 | 0.33 | 0.28 | 54 | 1007.7 |
| 20260509215815 | 74 | 267 | 9.0 | 16.0 | 0.00 | 0.33 | 0.28 | 55 | 1007.7 |
| 20260509215348 | 74 | 257 | 7.0 | 13.0 | 0.00 | 0.33 | 0.28 | 55 | 1007.7 |
| 20260509214820 | 74 | 158 | 6.0 | 11.0 | 0.00 | 0.33 | 0.28 | 54 | 1007.7 |
| 20260509214333 | 74 | 264 | 7.0 | 15.0 | 0.00 | 0.33 | 0.28 | 56 | 1007.7 |
| 20260509213825 | 74 | 255 | 8.0 | 15.0 | 0.00 | 0.33 | 0.28 | 55 | 1007.8 |
| 20260509213317 | 74 | 217 | 7.0 | 13.0 | 0.00 | 0.33 | 0.28 | 55 | 1007.7 |
| 20260509212814 | 74 | 212 | 5.0 | 13.0 | 0.00 | 0.33 | 0.28 | 55 | 1007.6 |
| 20260509212326 | 74 | 258 | 7.0 | 13.0 | 0.00 | 0.33 | 0.28 | 55 | 1007.7 |
| 20260509211820 | 73 | 220 | 8.0 | 14.0 | 0.00 | 0.33 | 0.28 | 55 | 1007.8 |
| 20260509211312 | 73 | 181 | 7.0 | 14.0 | 0.00 | 0.33 | 0.28 | 56 | 1007.8 |
| 20260509210825 | 73 | 239 | 6.0 | 13.0 | 0.00 | 0.33 | 0.28 | 57 | 1007.7 |
| 20260509210318 | 73 | 244 | 8.0 | 13.0 | 0.00 | 0.33 | 0.28 | 56 | 1007.7 |
| 20260509205831 | 73 | 233 | 8.0 | 14.0 | 0.00 | 0.33 | 0.28 | 58 | 1007.8 |
| 20260509205343 | 73 | 258 | 6.0 | 14.0 | 0.00 | 0.33 | 0.28 | 60 | 1007.8 |
| 20260509204815 | 73 | 166 | 7.0 | 11.0 | 0.00 | 0.33 | 0.28 | 57 | 1007.8 |
| 20260509204312 | 73 | 244 | 6.0 | 15.0 | 0.00 | 0.33 | 0.28 | 56 | 1007.9 |
| 20260509203825 | 73 | 259 | 10.0 | 15.0 | 0.00 | 0.33 | 0.28 | 57 | 1007.9 |
| 20260509203318 | 73 | 246 | 7.0 | 13.0 | 0.00 | 0.33 | 0.28 | 57 | 1007.9 |
| 20260509202831 | 73 | 217 | 8.0 | 13.0 | 0.00 | 0.33 | 0.28 | 60 | 1008.0 |
| 20260509202344 | 72 | 248 | 8.0 | 12.0 | 0.00 | 0.33 | 0.28 | 62 | 1008.0 |
| 20260509201815 | 72 | 246 | 7.0 | 15.0 | 0.00 | 0.33 | 0.28 | 60 | 1008.1 |
| 20260509201349 | 72 | 219 | 7.0 | 15.0 | 0.00 | 0.33 | 0.28 | 63 | 1008.2 |
| 20260509200820 | 72 | 244 | 7.0 | 14.0 | 0.00 | 0.33 | 0.28 | 64 | 1008.3 |
| 20260509200333 | 72 | 263 | 8.0 | 14.0 | 0.00 | 0.33 | 0.28 | 63 | 1008.3 |
| 20260509195825 | 72 | 249 | 7.0 | 13.0 | 0.00 | 0.33 | 0.28 | 65 | 1008.2 |
| 20260509195322 | 72 | 233 | 7.0 | 11.0 | 0.00 | 0.33 | 0.28 | 65 | 1008.3 |
| 20260509194815 | 72 | 269 | 6.0 | 13.0 | 0.00 | 0.33 | 0.28 | 67 | 1008.2 |
| 20260509194327 | 71 | 235 | 7.0 | 13.0 | 0.00 | 0.33 | 0.28 | 62 | 1008.2 |
| 20260509193820 | 71 | 228 | 5.0 | 13.0 | 0.00 | 0.33 | 0.28 | 63 | 1008.3 |
| 20260509193334 | 71 | 216 | 9.0 | 14.0 | 0.00 | 0.33 | 0.28 | 64 | 1008.4 |
| 20260509192825 | 71 | 186 | 7.0 | 14.0 | 0.00 | 0.33 | 0.28 | 64 | 1008.4 |
| 20260509192317 | 71 | 207 | 4.0 | 11.0 | 0.00 | 0.33 | 0.28 | 65 | 1008.4 |
| 20260509191830 | 71 | 226 | 4.0 | 11.0 | 0.00 | 0.33 | 0.28 | 67 | 1008.4 |
| 20260509191326 | 71 | 200 | 5.0 | 11.0 | 0.00 | 0.33 | 0.28 | 66 | 1008.5 |
| 20260509190819 | 71 | 276 | 7.0 | 12.0 | 0.00 | 0.33 | 0.28 | 67 | 1008.6 |
| 20260509190332 | 71 | 243 | 7.0 | 12.0 | 0.00 | 0.33 | 0.28 | 67 | 1008.7 |
| 20260509185824 | 70 | 167 | 5.0 | 11.0 | 0.00 | 0.33 | 0.28 | 64 | 1008.8 |
| 20260509185317 | 70 | 250 | 6.0 | 11.0 | 0.00 | 0.33 | 0.28 | 65 | 1008.8 |
| 20260509184830 | 70 | 198 | 6.0 | 12.0 | 0.00 | 0.33 | 0.28 | 66 | 1008.9 |
| 20260509184323 | 70 | 215 | 7.0 | 13.0 | 0.00 | 0.33 | 0.28 | 67 | 1008.9 |
| 20260509183815 | 70 | 265 | 5.0 | 14.0 | 0.00 | 0.33 | 0.28 | 67 | 1008.8 |
| 20260509183348 | 70 | 258 | 4.0 | 11.0 | 0.00 | 0.33 | 0.28 | 70 | 1008.8 |
| 20260509182823 | 69 | 237 | 6.0 | 17.0 | 0.00 | 0.33 | 0.28 | 74 | 1008.7 |
| 20260509182316 | 69 | 244 | 8.0 | 17.0 | 0.00 | 0.33 | 0.28 | 69 | 1008.9 |
| 20260509181829 | 69 | 246 | 7.0 | 16.0 | 0.00 | 0.33 | 0.28 | 72 | 1008.8 |
| 20260509181321 | 69 | 233 | 6.0 | 16.0 | 0.00 | 0.33 | 0.28 | 72 | 1008.9 |
| 20260509180814 | 68 | 226 | 7.0 | 11.0 | 0.00 | 0.33 | 0.28 | 71 | 1009.0 |
| 20260509180326 | 68 | 207 | 4.0 | 11.0 | 0.00 | 0.33 | 0.28 | 70 | 1008.9 |
| 20260509175818 | 68 | 229 | 6.0 | 11.0 | 0.00 | 0.33 | 0.28 | 73 | 1009.0 |
| 20260509175311 | 68 | 232 | 4.0 | 10.0 | 0.00 | 0.33 | 0.28 | 72 | 1009.0 |
| 20260509174828 | 69 | 250 | 6.0 | 10.0 | 0.00 | 0.33 | 0.28 | 70 | 1009.1 |
| 20260509174321 | 68 | 246 | 5.0 | 10.0 | 0.00 | 0.33 | 0.28 | 74 | 1009.0 |
| 20260509173814 | 68 | 210 | 3.0 | 12.0 | 0.00 | 0.33 | 0.28 | 70 | 1009.0 |
| 20260509173327 | 68 | 257 | 5.0 | 11.0 | 0.00 | 0.33 | 0.28 | 75 | 1009.0 |
| 20260509172820 | 67 | 226 | 5.0 | 10.0 | 0.00 | 0.33 | 0.28 | 74 | 1009.0 |
| 20260509172312 | 68 | 262 | 5.0 | 10.0 | 0.00 | 0.33 | 0.28 | 72 | 1009.1 |
| 20260509171845 | 67 | 243 | 4.0 | 13.0 | 0.00 | 0.33 | 0.28 | 72 | 1009.0 |
| 20260509171317 | 67 | 251 | 5.0 | 13.0 | 0.00 | 0.33 | 0.28 | 74 | 1009.0 |
| 20260509170813 | 68 | 230 | 6.0 | 10.0 | 0.00 | 0.33 | 0.28 | 74 | 1009.1 |
| 20260509170326 | 67 | 252 | 5.0 | 10.0 | 0.00 | 0.33 | 0.28 | 75 | 1009.0 |
| 20260509165818 | 66 | 233 | 5.0 | 9.0 | 0.00 | 0.33 | 0.28 | 75 | 1009.0 |
| 20260509165311 | 66 | 262 | 6.0 | 12.0 | 0.00 | 0.33 | 0.28 | 76 | 1009.1 |
| 20260509164824 | 66 | 252 | 7.0 | 12.0 | 0.00 | 0.33 | 0.28 | 74 | 1009.2 |
| 20260509164317 | 67 | 255 | 7.0 | 11.0 | 0.00 | 0.33 | 0.28 | 77 | 1009.2 |
| 20260509163830 | 66 | 257 | 5.0 | 10.0 | 0.00 | 0.33 | 0.28 | 74 | 1009.4 |
| 20260509163323 | 66 | 276 | 7.0 | 9.0 | 0.00 | 0.33 | 0.28 | 76 | 1009.4 |
| 20260509162820 | 66 | 207 | 6.0 | 10.0 | 0.00 | 0.33 | 0.28 | 76 | 1009.4 |
| 20260509162332 | 65 | 223 | 4.0 | 11.0 | 0.00 | 0.33 | 0.28 | 79 | 1009.4 |
| 20260509161824 | 65 | 248 | 6.0 | 11.0 | 0.00 | 0.33 | 0.28 | 77 | 1009.3 |
| 20260509161317 | 65 | 273 | 7.0 | 10.0 | 0.00 | 0.33 | 0.28 | 77 | 1009.3 |
| 20260509160829 | 65 | 220 | 5.0 | 10.0 | 0.00 | 0.33 | 0.28 | 76 | 1009.3 |
| 20260509160342 | 64 | 268 | 6.0 | 10.0 | 0.00 | 0.33 | 0.28 | 80 | 1009.3 |
| 20260509155834 | 64 | 258 | 6.0 | 10.0 | 0.00 | 0.33 | 0.28 | 80 | 1009.2 |
| 20260509155326 | 64 | 244 | 3.0 | 10.0 | 0.00 | 0.33 | 0.28 | 78 | 1009.1 |
| 20260509154818 | 64 | 236 | 5.0 | 9.0 | 0.00 | 0.33 | 0.28 | 77 | 1009.1 |
| 20260509154311 | 64 | 259 | 3.0 | 10.0 | 0.00 | 0.33 | 0.28 | 81 | 1009.1 |
| 20260509153828 | 65 | 238 | 4.0 | 12.0 | 0.00 | 0.33 | 0.28 | 80 | 1009.1 |
| 20260509153341 | 64 | 169 | 6.0 | 12.0 | 0.00 | 0.33 | 0.28 | 83 | 1009.0 |
| 20260509152813 | 64 | 213 | 4.0 | 11.0 | 0.00 | 0.33 | 0.28 | 80 | 1008.9 |
| 20260509152326 | 64 | 255 | 5.0 | 11.0 | 0.00 | 0.33 | 0.28 | 82 | 1008.9 |
| 20260509151819 | 63 | 255 | 4.0 | 10.0 | 0.00 | 0.33 | 0.28 | 82 | 1009.0 |
| 20260509151312 | 63 | 247 | 6.0 | 10.0 | 0.00 | 0.33 | 0.28 | 83 | 1009.0 |
| 20260509150824 | 63 | 251 | 3.0 | 11.0 | 0.00 | 0.33 | 0.28 | 84 | 1009.0 |
| 20260509150318 | 62 | 269 | 5.0 | 11.0 | 0.00 | 0.33 | 0.28 | 84 | 1009.1 |
| 20260509145814 | 62 | 264 | 6.0 | 11.0 | 0.00 | 0.33 | 0.28 | 85 | 1009.0 |
| 20260509145327 | 61 | 209 | 4.0 | 8.0 | 0.00 | 0.33 | 0.28 | 88 | 1009.0 |
| 20260509144819 | 61 | 194 | 4.0 | 9.0 | 0.00 | 0.33 | 0.28 | 86 | 1008.9 |
| 20260509144311 | 61 | 224 | 4.0 | 10.0 | 0.00 | 0.33 | 0.28 | 87 | 1008.9 |
| 20260509143824 | 62 | 257 | 7.0 | 10.0 | 0.00 | 0.33 | 0.28 | 85 | 1008.8 |
| 20260509143317 | 62 | 246 | 4.0 | 9.0 | 0.00 | 0.33 | 0.28 | 88 | 1008.8 |
| 20260509142830 | 62 | 212 | 4.0 | 9.0 | 0.00 | 0.33 | 0.28 | 89 | 1008.7 |
| 20260509142323 | 61 | 220 | 4.0 | 8.0 | 0.00 | 0.33 | 0.28 | 90 | 1008.7 |
| 20260509141836 | 60 | 204 | 4.0 | 8.0 | 0.00 | 0.33 | 0.28 | 91 | 1008.7 |
| 20260509141312 | 59 | 137 | 4.0 | 6.0 | 0.00 | 0.33 | 0.28 | 92 | 1008.9 |
| 20260509140825 | 59 | 260 | 3.0 | 7.0 | 0.00 | 0.33 | 0.28 | 92 | 1008.9 |
| 20260509140317 | 59 | 208 | 4.0 | 9.0 | 0.00 | 0.33 | 0.28 | 92 | 1008.9 |
| 20260509135831 | 59 | 231 | 4.0 | 9.0 | 0.00 | 0.33 | 0.28 | 93 | 1008.7 |
| 20260509135323 | 59 | 202 | 6.0 | 9.0 | 0.00 | 0.33 | 0.28 | 94 | 1008.7 |
| 20260509134837 | 58 | 229 | 3.0 | 9.0 | 0.00 | 0.33 | 0.28 | 96 | 1008.6 |
| 20260509134328 | 58 | 205 | 4.0 | 9.0 | 0.00 | 0.33 | 0.28 | 96 | 1008.7 |
| 20260509133821 | 57 | 209 | 5.0 | 8.0 | 0.00 | 0.33 | 0.28 | 96 | 1008.8 |
| 20260509133318 | 57 | 213 | 5.0 | 8.0 | 0.00 | 0.33 | 0.28 | 96 | 1008.8 |
| 20260509132831 | 57 | 239 | 4.0 | 9.0 | 0.00 | 0.33 | 0.28 | 97 | 1008.8 |
| 20260509132324 | 57 | 179 | 1.0 | 6.0 | 0.00 | 0.33 | 0.28 | 97 | 1008.6 |
| 20260509131816 | 56 | 222 | 4.0 | 6.0 | 0.00 | 0.33 | 0.28 | 97 | 1008.7 |
| 20260509131329 | 56 | 241 | 4.0 | 6.0 | 0.00 | 0.33 | 0.28 | 97 | 1008.7 |
| 20260509130822 | 56 | 197 | 3.0 | 5.0 | 0.00 | 0.33 | 0.28 | 97 | 1008.7 |
| 20260509130315 | 55 | 210 | 2.0 | 5.0 | 0.00 | 0.33 | 0.28 | 97 | 1008.7 |
| 20260509125828 | 55 | 203 | 1.0 | 4.0 | 0.00 | 0.33 | 0.28 | 97 | 1008.7 |
| 20260509125324 | 55 | 224 | 2.0 | 6.0 | 0.00 | 0.33 | 0.28 | 97 | 1008.8 |
| 20260509124817 | 55 | 224 | 2.0 | 8.0 | 0.00 | 0.33 | 0.28 | 97 | 1008.8 |
| 20260509124330 | 55 | 199 | 4.0 | 8.0 | 0.00 | 0.33 | 0.28 | 97 | 1008.8 |
| 20260509123823 | 55 | 243 | 4.0 | 8.0 | 0.00 | 0.33 | 0.28 | 97 | 1008.8 |
| 20260509123315 | 54 | 218 | 4.0 | 8.0 | 0.00 | 0.33 | 0.28 | 97 | 1008.8 |
| 20260509122828 | 54 | 212 | 3.0 | 7.0 | 0.00 | 0.33 | 0.28 | 97 | 1008.7 |
| 20260509122321 | 54 | 214 | 2.0 | 5.0 | 0.00 | 0.33 | 0.28 | 97 | 1008.6 |
| 20260509121813 | 54 | 202 | 2.0 | 5.0 | 0.01 | 0.33 | 0.28 | 97 | 1008.5 |
| 20260509121330 | 54 | 225 | 2.0 | 4.0 | 0.01 | 0.33 | 0.28 | 97 | 1008.4 |
| 20260509120823 | 54 | 160 | 1.0 | 4.0 | 0.01 | 0.33 | 0.28 | 97 | 1008.3 |
| 20260509120316 | 54 | 195 | 1.0 | 4.0 | 0.01 | 0.33 | 0.28 | 97 | 1008.3 |
| 20260509115829 | 54 | 210 | 1.0 | 4.0 | 0.01 | 0.33 | 0.28 | 97 | 1008.3 |
| 20260509115321 | 54 | 177 | 2.0 | 4.0 | 0.01 | 0.33 | 0.28 | 97 | 1008.3 |
| 20260509114327 | 53 | 213 | 1.0 | 4.0 | 0.01 | 0.33 | 0.28 | 97 | 1008.2 |
| 20260509113841 | 53 | 191 | 1.0 | 3.0 | 0.01 | 0.33 | 0.28 | 97 | 1008.2 |
| 20260509113332 | 53 | 216 | 1.0 | 2.0 | 0.01 | 0.33 | 0.28 | 97 | 1008.3 |
| 20260509112828 | 53 | 239 | 0.0 | 1.0 | 0.01 | 0.33 | 0.28 | 97 | 1008.3 |
| 20260509112321 | 53 | 239 | 0.0 | 1.0 | 0.01 | 0.33 | 0.28 | 97 | 1008.3 |
| 20260509111814 | 53 | 232 | 0.0 | 1.0 | 0.00 | 0.32 | 0.27 | 97 | 1008.3 |
| 20260509111327 | 53 | 231 | 0.0 | 2.0 | 0.00 | 0.32 | 0.27 | 97 | 1008.2 |
| 20260509110840 | 53 | 231 | 0.0 | 3.0 | 0.00 | 0.32 | 0.27 | 97 | 1008.3 |
| 20260509110311 | 53 | 224 | 0.0 | 3.0 | 0.01 | 0.32 | 0.27 | 97 | 1008.0 |
| 20260509105844 | 53 | 217 | 0.0 | 1.0 | 0.01 | 0.32 | 0.27 | 97 | 1007.9 |
| 20260509105316 | 53 | 165 | 0.0 | 1.0 | 0.01 | 0.32 | 0.27 | 97 | 1007.9 |
| 20260509104829 | 53 | 183 | 0.0 | 1.0 | 0.01 | 0.32 | 0.27 | 97 | 1008.0 |
| 20260509104326 | 53 | 181 | 0.0 | 1.0 | 0.02 | 0.32 | 0.27 | 97 | 1008.0 |
| 20260509103818 | 53 | 179 | 0.0 | 2.0 | 0.02 | 0.32 | 0.27 | 97 | 1008.1 |
| 20260509103351 | 53 | 214 | 1.0 | 2.0 | 0.02 | 0.32 | 0.27 | 97 | 1008.2 |
| 20260509102822 | 53 | 135 | 0.0 | 1.0 | 0.04 | 0.32 | 0.27 | 97 | 1008.2 |
| 20260509102315 | 53 | 211 | 0.0 | 2.0 | 0.05 | 0.32 | 0.27 | 97 | 1008.4 |
| 20260509101848 | 53 | 211 | 0.0 | 2.0 | 0.06 | 0.32 | 0.27 | 97 | 1008.4 |
| 20260509101340 | 53 | 212 | 0.0 | 4.0 | 0.07 | 0.32 | 0.27 | 97 | 1008.5 |
| 20260509100811 | 54 | 218 | 1.0 | 4.0 | 0.07 | 0.32 | 0.27 | 97 | 1008.6 |
| 20260509100325 | 54 | 218 | 1.0 | 3.0 | 0.07 | 0.31 | 0.26 | 97 | 1008.6 |
| 20260509095817 | 54 | 216 | 1.0 | 3.0 | 0.07 | 0.31 | 0.26 | 97 | 1008.6 |
| 20260509095314 | 54 | 227 | 1.0 | 2.0 | 0.08 | 0.31 | 0.26 | 97 | 1008.5 |
| 20260509094847 | 54 | 222 | 0.0 | 2.0 | 0.08 | 0.31 | 0.26 | 97 | 1008.4 |
| 20260509094340 | 54 | 222 | 0.0 | 5.0 | 0.08 | 0.30 | 0.25 | 97 | 1008.6 |
| 20260509093831 | 54 | 212 | 3.0 | 5.0 | 0.08 | 0.30 | 0.25 | 97 | 1008.7 |
| 20260509093344 | 54 | 149 | 1.0 | 4.0 | 0.07 | 0.29 | 0.24 | 97 | 1008.7 |
| 20260509092815 | 54 | 217 | 3.0 | 4.0 | 0.07 | 0.28 | 0.23 | 97 | 1009.0 |
| 20260509092328 | 54 | 224 | 1.0 | 3.0 | 0.06 | 0.27 | 0.22 | 97 | 1009.0 |
| 20260509091841 | 54 | 217 | 1.0 | 3.0 | 0.05 | 0.26 | 0.21 | 97 | 1009.2 |
| 20260509091313 | 54 | 205 | 0.0 | 2.0 | 0.05 | 0.25 | 0.20 | 97 | 1009.0 |
| 20260509090826 | 54 | 176 | 0.0 | 2.0 | 0.05 | 0.25 | 0.20 | 97 | 1009.0 |
| 20260509090339 | 54 | 214 | 1.0 | 2.0 | 0.05 | 0.24 | 0.19 | 97 | 1009.0 |
| 20260509085815 | 54 | 159 | 0.0 | 2.0 | 0.06 | 0.24 | 0.19 | 97 | 1008.9 |
| 20260509085348 | 54 | 207 | 0.0 | 1.0 | 0.05 | 0.23 | 0.18 | 97 | 1009.0 |
| 20260509084819 | 54 | 212 | 0.0 | 1.0 | 0.05 | 0.23 | 0.18 | 97 | 1009.0 |
| 20260509084312 | 54 | 223 | 0.0 | 1.0 | 0.04 | 0.22 | 0.17 | 96 | 1009.0 |
| 20260509083824 | 54 | 215 | 0.0 | 1.0 | 0.05 | 0.22 | 0.17 | 97 | 1008.9 |
| 20260509083337 | 54 | 216 | 0.0 | 1.0 | 0.05 | 0.22 | 0.17 | 97 | 1009.0 |
| 20260509082829 | 54 | 216 | 0.0 | 1.0 | 0.04 | 0.21 | 0.16 | 96 | 1009.1 |
| 20260509082321 | 54 | 212 | 0.0 | 2.0 | 0.04 | 0.21 | 0.16 | 96 | 1009.2 |